TimeCDT,TemperatureF,Dew PointF,Humidity,Sea Level PressureIn,VisibilityMPH,Wind Direction,Wind SpeedMPH,Gust SpeedMPH,PrecipitationIn,Events,Conditions,WindDirDegrees,DateUTC
12:50 AM,83,71,58,30.01,12,ESE,2.2,,,,,110,2013-08-30 05:50:00
3:55 AM,81,69,59,30.02,12,ESE,2.2,,,,,120,2013-08-30 08:55:00
6:45 AM,78,71,75,30.02,12,South,2.2,,,,,190,2013-08-30 11:45:00
7:40 AM,77.0,69.8,78,30.03,10.0,Calm,Calm,-,N/A,,Clear,0,2013-08-30 12:40:00
8:40 AM,80.6,69.8,70,30.05,10.0,Calm,Calm,-,N/A,,Clear,0,2013-08-30 13:40:00
9:40 AM,82,74,69,30.03,15,ESE,2.2,,,,,120,2013-08-30 14:40:00
9:40 AM,86.0,71.6,62,30.06,10.0,Calm,Calm,-,N/A,,Clear,0,2013-08-30 14:40:00
10:40 AM,86.0,71.6,62,30.06,10.0,Calm,Calm,-,N/A,,Clear,0,2013-08-30 15:40:00
11:40 AM,91.4,69.8,49,30.06,10.0,Calm,Calm,-,N/A,,Clear,0,2013-08-30 16:40:00
12:40 PM,96,72,36,30.01,15,SSE,2.2,,,,,160,2013-08-30 17:40:00
12:40 PM,93.2,64.4,38,30.04,10.0,ESE,5.8,-,N/A,,Partly Cloudy,110,2013-08-30 17:40:00
1:40 PM,95.0,64.4,36,30.02,10.0,East,5.8,-,N/A,,Scattered Clouds,90,2013-08-30 18:40:00
2:40 PM,96.8,62.6,32,30.00,10.0,East,8.1,-,N/A,,Scattered Clouds,100,2013-08-30 19:40:00
3:40 PM,100,74,34,29.94,15,ENE,4.5,,,,,70,2013-08-30 20:40:00
3:40 PM,96.8,62.6,32,29.95,10.0,East,9.2,-,N/A,,Scattered Clouds,90,2013-08-30 20:40:00
4:40 PM,98.6,62.6,30,29.93,10.0,East,9.2,-,N/A,,Scattered Clouds,100,2013-08-30 21:40:00
5:40 PM,98.6,66.2,35,29.92,10.0,East,9.2,-,N/A,,Scattered Clouds,100,2013-08-30 22:40:00
6:40 PM,100,72,31,29.88,15,ESE,2.2,,,,Scattered Clouds,120,2013-08-30 23:40:00
6:40 PM,96.8,62.6,32,29.91,10.0,ESE,6.9,-,N/A,,Partly Cloudy,110,2013-08-30 23:40:00
9:50 PM,90,66,36,29.89,12,ESE,4.5,,,,,110,2013-08-31 02:50:00